User: anonymous   Login
Location: Unspecified
(0.0000°N, 0.0000°E)
Time: 21:22:03
(UTC+00:00)
Language:

STARLINK-33976 - Orbit

View from above orbital plane
View from above orbital plane
View from above satellite
View from above satellite

Ground track
Ground track

The orbit is defined by the following mean orbital elements,

1 63858U          26145.65841029 +.00000000 +00000-0 +81590-3 0 00002
2 63858  43.0033   3.1816 0001174 245.7288 114.3442 15.27585182    06
Epoch (UTC): 25 May 2026 15:48:06
Eccentricity: 0.0001174
inclination: 43.0033°
perigee height: 482 km
apogee height: 484 km
right ascension of ascending node: 3.1816°
argument of perigee: 245.7288°
revolutions per day: 15.27585182
mean anomaly at epoch: 114.3442°

The dashed part of the orbit path shows where the satellite is in the earth's shadow,  

DLR